IRIDIUM 8 [+] 1 24792U 97020A 09006.53780783 .00000014 00000-0 -21580-5 0 4620 2 24792 86.3989 167.4562 0002214 81.4723 278.6721 14.34217027611219 IRIDIUM 7 [+] 1 24793U 97020B 09006.53146307 -.00000040 00000-0 -21443-4 0 4570 2 24793 86.3993 167.5837 0002186 77.1323 283.0114 14.34216722611214 IRIDIUM 6 [+] 1 24794U 97020C 09006.59490132 -.00000041 00000-0 -21842-4 0 2511 2 24794 86.3993 167.5479 0002015 77.0116 283.1305 14.34216167611224 IRIDIUM 5 [+] 1 24795U 97020D 09006.51877580 -.00000046 00000-0 -23447-4 0 5757 2 24795 86.3978 167.7434 0000859 110.3312 249.7971 14.34216977611297 IRIDIUM 4 [+] 1 24796U 97020E 09006.61394200 -.00000070 00000-0 -31987-4 0 4790 2 24796 86.3983 167.3313 0002259 79.7815 280.3638 14.34215891611248 IRIDIUM 914 [-] 1 24836U 97030A 09006.62394861 .00000069 00000-0 16284-4 0 1112 2 24836 86.3930 192.0969 0003256 101.3583 258.7987 14.37418838605810 IRIDIUM 12 [+] 1 24837U 97030B 09006.60467394 -.00000077 00000-0 -34686-4 0 4708 2 24837 86.3965 198.8533 0002232 77.6555 282.4883 14.34217496604976 IRIDIUM 10 [+] 1 24839U 97030D 09006.59199063 -.00000035 00000-0 -19482-4 0 4670 2 24839 86.3951 198.8569 0002236 78.5342 281.6105 14.34217468604988 IRIDIUM 13 [+] 1 24840U 97030E 09006.61101711 -.00000050 00000-0 -25017-4 0 4328 2 24840 86.3966 198.9200 0002266 76.0623 284.0822 14.34217614604972 IRIDIUM 16 [-] 1 24841U 97030F 09006.56822361 .00000178 00000-0 55434-4 0 4521 2 24841 86.4055 199.4429 0001155 20.1641 339.9600 14.35265118605099 IRIDIUM 911 [-] 1 24842U 97030G 09006.32717285 .00000098 00000-0 23134-4 0 1928 2 24842 86.4456 201.8106 0012760 232.4791 127.5250 14.43148378607948 IRIDIUM 15 [+] 1 24869U 97034A 09006.60180769 .00000070 00000-0 17799-4 0 4960 2 24869 86.3956 230.4967 0002199 76.6749 283.4699 14.34220890601943 IRIDIUM 17 [-] 1 24870U 97034B 09006.57272522 .00000085 00000-0 23175-4 0 4553 2 24870 86.3936 230.4327 0002221 75.0870 285.0578 14.34414662601954 IRIDIUM 920 [-] 1 24871U 97034C 09005.73898930 .00000090 00000-0 23249-4 0 1317 2 24871 86.3958 224.2794 0013749 41.1636 319.0596 14.38048140602888 IRIDIUM 18 [+] 1 24872U 97034D 09006.63351903 .00000100 00000-0 28810-4 0 4608 2 24872 86.3958 230.6200 0002160 73.5365 286.6056 14.34221010601946 IRIDIUM 921 [-] 1 24873U 97034E 09006.45474965 .00000544 00000-0 44467-4 0 4476 2 24873 86.3861 65.9740 0011483 53.3384 306.8900 14.97071128625012 IRIDIUM 26 [+] 1 24903U 97043A 09006.41056498 .00000192 00000-0 61613-4 0 5723 2 24903 86.3976 104.4203 0002305 84.8559 275.2898 14.34218521595856 IRIDIUM 25 [+] 1 24904U 97043B 09006.51204612 .00000195 00000-0 62414-4 0 4685 2 24904 86.3974 104.3299 0002229 83.2667 276.8783 14.34218579595838 IRIDIUM 46 [+] 1 24905U 97043C 09006.38519791 .00000232 00000-0 75674-4 0 4817 2 24905 86.3986 104.6500 0002328 83.3114 276.8345 14.34218483595825 IRIDIUM 23 [+] 1 24906U 97043D 09006.35982487 .00000197 00000-0 63123-4 0 4783 2 24906 86.3974 104.3305 0002232 83.9682 276.1765 14.34218428595821 IRIDIUM 22 [+] 1 24907U 97043E 09006.56278574 .00000169 00000-0 53359-4 0 4512 2 24907 86.3984 104.6172 0002283 85.0687 275.0772 14.34218599595850 DUMMY MASS 1 [-] 1 24925U 97048A 09006.82067687 .00000079 00000-0 61325-5 0 932 2 24925 86.3320 23.1420 0008965 115.3666 244.8497 14.83817197614204 DUMMY MASS 2 [-] 1 24926U 97048B 09005.65091433 .00000051 00000-0 27814-5 0 844 2 24926 86.3316 24.3017 0009506 123.3926 236.8205 14.83598009613941 IRIDIUM 29 [+] 1 24944U 97051A 09006.57250803 .00000104 00000-0 30067-4 0 4237 2 24944 86.3986 135.9076 0002225 81.6256 278.5190 14.34215201592422 IRIDIUM 32 [+] 1 24945U 97051B 09006.45200055 .00000164 00000-0 51457-4 0 4332 2 24945 86.3994 135.9715 0002234 83.9311 276.2139 14.34215448592420 IRIDIUM 33 [+] 1 24946U 97051C 09006.45834245 .00000139 00000-0 42744-4 0 4271 2 24946 86.3990 136.0285 0002219 83.0275 277.1173 14.34215276592410 IRIDIUM 28 [-] 1 24948U 97051E 09006.49536768 .00000146 00000-0 44933-4 0 2825 2 24948 86.3992 136.1001 0001737 82.1621 277.9770 14.34241633592406 IRIDIUM 30 [+] 1 24949U 97051F 09006.44565915 .00000195 00000-0 62436-4 0 4708 2 24949 86.3995 136.0250 0002234 81.6830 278.4616 14.34215394592404 IRIDIUM 31 [+] 1 24950U 97051G 09006.43931295 .00000145 00000-0 44595-4 0 4539 2 24950 86.3988 136.0177 0002232 82.9052 277.2393 14.34215361592418 IRIDIUM 19 [+] 1 24965U 97056A 09006.56319814 .00000044 00000-0 87156-5 0 4260 2 24965 86.3993 167.4205 0002231 78.5040 281.6405 14.34216438590571 IRIDIUM 35 [+] 1 24966U 97056B 09006.57587480 .00000027 00000-0 25086-5 0 4713 2 24966 86.3990 167.4405 0002209 78.8600 281.2843 14.34216574590552 IRIDIUM 36 [-] 1 24967U 97056C 09006.56646259 .00000101 00000-0 28927-4 0 4093 2 24967 86.3998 167.5110 0002228 77.5984 282.5459 14.34283913590690 IRIDIUM 37 [+] 1 24968U 97056D 09006.55050237 .00000034 00000-0 50458-5 0 4447 2 24968 86.3990 167.5453 0002230 80.3520 279.7925 14.34216636590553 IRIDIUM 34 [+] 1 24969U 97056E 09006.56952718 .00000032 00000-0 41943-5 0 4294 2 24969 86.3992 167.4835 0002209 79.3714 280.7729 14.34217059590552 IRIDIUM 43 [+] 1 25039U 97069A 09006.62717721 .00000085 00000-0 23375-4 0 4282 2 25039 86.3959 230.6403 0002188 79.0553 281.0889 14.34220922584346 IRIDIUM 41 [+] 1 25040U 97069B 09006.62083618 .00000077 00000-0 20391-4 0 4225 2 25040 86.3955 230.5576 0002190 78.7265 281.4174 14.34220753584346 IRIDIUM 40 [+] 1 25041U 97069C 09006.64620571 .00000072 00000-0 18761-4 0 4462 2 25041 86.3958 230.5178 0002174 80.0236 280.1194 14.34220811584369 IRIDIUM 39 [+] 1 25042U 97069D 09006.58277188 .00000140 00000-0 42824-4 0 4258 2 25042 86.3957 230.6990 0002021 73.4179 286.7239 14.34222116584334 IRIDIUM 38 [-] 1 25043U 97069E 09006.63625011 .00000063 00000-0 15452-4 0 4472 2 25043 86.3954 229.9895 0001400 66.8183 293.3146 14.34678597584449 IRIDIUM 42 [+] 1 25077U 97077A 09006.63986258 .00000061 00000-0 14617-4 0 4347 2 25077 86.3957 230.5928 0002157 78.5046 281.6377 14.34220773580207 IRIDIUM 44 [-] 1 25078U 97077B 09006.74451637 .00000110 00000-0 30562-4 0 111 2 25078 86.3934 226.3250 0001355 24.2089 335.9169 14.36528191580757 IRIDIUM 45 [+] 1 25104U 97082A 09006.37885214 .00000204 00000-0 65898-4 0 3834 2 25104 86.3972 104.4142 0002274 81.7273 278.4180 14.34218480578362 IRIDIUM 24 [-] 1 25105U 97082B 09006.30256748 .00000182 00000-0 53345-4 0 603 2 25105 86.3921 95.6100 0013523 46.0827 314.1498 14.38251355579385 IRIDIUM 47 [+] 1 25106U 97082C 09006.39153929 .00000216 00000-0 70216-4 0 3742 2 25106 86.3971 104.3509 0002300 82.8525 277.2931 14.34218400578364 IRIDIUM 49 [+] 1 25108U 97082E 09006.40422299 .00000268 00000-0 88667-4 0 3954 2 25108 86.3973 104.3618 0002359 83.2457 276.9007 14.34218685578378 IRIDIUM 52 [+] 1 25169U 98010A 09006.57296014 -.00000001 00000-0 -75866-5 0 1723 2 25169 86.3974 199.0189 0002192 79.4546 280.6895 14.34217922569809 IRIDIUM 56 [+] 1 25170U 98010B 09006.56661614 -.00000057 00000-0 -27446-4 0 4124 2 25170 86.3974 199.0636 0002246 78.8033 281.3413 14.34217881569787 IRIDIUM 54 [+] 1 25171U 98010C 09006.59833045 .00000007 00000-0 -45278-5 0 3977 2 25171 86.3961 199.0110 0002235 77.6920 282.4521 14.34217969569959 IRIDIUM 50 [+] 1 25172U 98010D 09006.56027440 -.00000030 00000-0 -17862-4 0 4165 2 25172 86.3973 198.9988 0002233 79.6429 280.5017 14.34217852569789 IRIDIUM 53 [+] 1 25173U 98010E 09006.57930129 .00000011 00000-0 -32780-5 0 4068 2 25173 86.3974 199.0013 0002249 78.7244 281.4203 14.34218150569794 IRIDIUM 51 [S] 1 25262U 98018A 09006.55147066 -.00000017 00000-0 -11141-4 0 5079 2 25262 86.4500 167.5773 0002312 76.7409 283.4046 14.42947490568065 IRIDIUM 61 [+] 1 25263U 98018B 09006.55685129 -.00000043 00000-0 -22482-4 0 3614 2 25263 86.3992 167.5201 0002212 79.7338 280.4105 14.34216225564884 IRIDIUM 55 [+] 1 25272U 98019A 09006.49005551 .00000142 00000-0 43722-4 0 3521 2 25272 86.3984 135.8885 0002219 85.5444 274.6004 14.34215305564073 IRIDIUM 57 [+] 1 25273U 98019B 09006.46468584 .00000157 00000-0 48924-4 0 3916 2 25273 86.3997 136.0700 0002215 79.8509 280.2934 14.34215320564073 IRIDIUM 58 [+] 1 25274U 98019C 09006.47102797 .00000204 00000-0 65917-4 0 2035 2 25274 86.3998 136.1724 0002243 80.2818 279.8629 14.34215524564073 IRIDIUM 59 [+] 1 25275U 98019D 09006.47737227 .00000145 00000-0 44635-4 0 472 2 25275 86.3996 136.1893 0002365 64.1850 295.9589 14.34215190564074 IRIDIUM 60 [+] 1 25276U 98019E 09006.55348211 .00000167 00000-0 52474-4 0 4257 2 25276 86.3991 135.8994 0002184 81.6882 278.4558 14.34215296564086 IRIDIUM 62 [+] 1 25285U 98021A 09006.58471158 .00000184 00000-0 58734-4 0 3859 2 25285 86.3950 72.7214 0002411 84.1061 276.0418 14.34223779563044 IRIDIUM 63 [+] 1 25286U 98021B 09006.59105577 .00000212 00000-0 68605-4 0 3984 2 25286 86.3949 72.7997 0002420 83.4070 276.7407 14.34223801563044 IRIDIUM 64 [+] 1 25287U 98021C 09006.59739219 .00000173 00000-0 54682-4 0 3527 2 25287 86.3951 72.7372 0002417 87.0565 273.0920 14.34223978563023 IRIDIUM 65 [+] 1 25288U 98021D 09006.60373229 .00000148 00000-0 45905-4 0 3996 2 25288 86.3945 72.6893 0002213 74.9874 285.1582 14.34223627563047 IRIDIUM 66 [+] 1 25289U 98021E 09006.61007814 .00000130 00000-0 39212-4 0 3560 2 25289 86.3937 72.6162 0002455 83.0222 277.1255 14.34223801563046 IRIDIUM 67 [+] 1 25290U 98021F 09006.61642207 .00000158 00000-0 49375-4 0 1742 2 25290 86.3949 72.7023 0002410 85.2536 274.8946 14.34223953563051 IRIDIUM 68 [+] 1 25291U 98021G 09006.62276702 .00000126 00000-0 37831-4 0 3872 2 25291 86.3951 72.7619 0002380 85.6872 274.4604 14.34223536563020 IRIDIUM 69 [-] 1 25319U 98026A 09006.33885899 .00000098 00000-0 26500-4 0 2204 2 25319 86.3985 101.1177 0001633 24.2401 335.8872 14.37065739559937 IRIDIUM 71 [-] 1 25320U 98026B 09006.37737210 .00000110 00000-0 30152-4 0 9922 2 25320 86.3967 98.6066 0004027 57.4304 302.7291 14.37659137560218 IRIDIUM 70 [+] 1 25342U 98032A 09006.57837096 .00000176 00000-0 55947-4 0 4058 2 25342 86.3956 72.8807 0002417 87.6804 272.4674 14.34223618557120 IRIDIUM 72 [+] 1 25343U 98032B 09006.56568405 .00000146 00000-0 45080-4 0 3944 2 25343 86.3951 72.6976 0002386 81.1902 278.9572 14.34223530557125 IRIDIUM 73 [-] 1 25344U 98032C 09006.24084434 .00000095 00000-0 20617-4 0 2621 2 25344 86.4393 63.8503 0001669 69.4295 290.7081 14.47103209561308 IRIDIUM 74 [S] 1 25345U 98032D 09006.57179093 .00000199 00000-0 53460-4 0 4151 2 25345 86.4465 72.8306 0002514 86.7577 273.3916 14.42962058558080 IRIDIUM 75 [+] 1 25346U 98032E 09006.57202350 .00000160 00000-0 50171-4 0 4205 2 25346 86.3955 72.8374 0002424 84.5356 275.6121 14.34223899557693 IRIDIUM 3 [+] 1 25431U 98048A 09006.41690681 .00000210 00000-0 67972-4 0 3558 2 25431 86.3972 104.5081 0002361 71.9063 288.2388 14.34218613543610 IRIDIUM 76 [+] 1 25432U 98048B 09006.57547616 .00000195 00000-0 62685-4 0 2800 2 25432 86.3978 104.2958 0002944 80.2925 279.8603 14.34218380543622 IRIDIUM 82 [+] 1 25467U 98051A 09006.61448983 .00000059 00000-0 13906-4 0 5134 2 25467 86.3942 230.6024 0001516 62.8167 297.3180 14.34220806544641 IRIDIUM 81 [+] 1 25468U 98051B 09006.60814890 .00000066 00000-0 16571-4 0 3483 2 25468 86.3953 230.4697 0002228 83.4569 276.6879 14.34220972540863 IRIDIUM 80 [+] 1 25469U 98051C 09006.58912226 .00000088 00000-0 24224-4 0 3447 2 25469 86.3959 230.5920 0002200 75.6234 284.5209 14.34220984540860 IRIDIUM 77 [+] 1 25471U 98051E 09006.59546297 .00000103 00000-0 29596-4 0 5191 2 25471 86.3944 230.4777 0002962 57.0415 303.1068 14.34221114546061 IRIDIUM 2 [-] 1 25527U 98066A 09006.53727540 .00000218 00000-0 15753-4 0 7341 2 25527 85.5618 12.5651 0012654 52.5535 307.6842 14.97903262554039 IRIDIUM 86 [+] 1 25528U 98066B 09006.62370135 -.00000050 00000-0 -25007-4 0 5646 2 25528 86.3963 198.7393 0002293 56.9755 303.1660 14.34217568537399 IRIDIUM 84 [+] 1 25530U 98066D 09006.58564817 -.00000069 00000-0 -31870-4 0 2266 2 25530 86.3955 198.8593 0002224 77.8919 282.2521 14.34217209535027 IRIDIUM 83 [+] 1 25531U 98066E 09006.61735947 -.00000053 00000-0 -26122-4 0 3342 2 25531 86.3973 198.8546 0002227 79.1475 280.9969 14.34217621532386 IRIDIUM 20 [+] 1 25577U 98074A 09006.39787983 .00000170 00000-0 53581-4 0 2798 2 25577 86.3972 104.3359 0002297 84.9196 275.2260 14.34218366526437 IRIDIUM 11 [S] 1 25578U 98074B 09006.41137724 .00000233 00000-0 49181-4 0 4630 2 25578 86.5164 104.5212 0002372 83.8823 276.2654 14.54945539534025 IRIDIUM 14 [S] 1 25777U 99032A 09006.61383856 -.00000459 00000-0 -11179-3 0 4319 2 25777 86.5146 72.7425 0002906 94.3427 265.8035 14.54948991508436 IRIDIUM 21 [+] 1 25778U 99032B 09006.62911241 .00000151 00000-0 46899-4 0 3343 2 25778 86.3952 72.7459 0004475 88.1786 271.9927 14.34223651506140 IRIDIUM 91 [S] 1 27372U 02005A 09006.44480077 .00000212 00000-0 34047-4 0 9275 2 27372 86.5823 136.1923 0003225 182.7911 177.3282 14.66608343369459 IRIDIUM 90 [S] 1 27373U 02005B 09006.55684352 -.00000049 00000-0 -20864-4 0 8923 2 27373 86.4481 198.6941 0005579 141.9448 218.2146 14.42953160366688 IRIDIUM 94 [S] 1 27374U 02005C 09006.45133330 .00000002 00000-0 -39732-5 0 9540 2 27374 86.5816 135.8040 0002392 82.2299 277.9183 14.66608190369453 IRIDIUM 95 [+] 1 27375U 02005D 09006.49639961 .00000207 00000-0 66985-4 0 9158 2 27375 86.4007 135.9693 0002343 79.8462 280.2997 14.34215479368920 IRIDIUM 96 [S] 1 27376U 02005E 09006.46358001 -.00000447 00000-0 -84895-4 0 9494 2 27376 86.5818 135.7581 0002314 81.2646 278.8830 14.66604203369455 IRIDIUM 97 [+] 1 27450U 02031A 09006.58221950 .00000002 00000-0 -65185-5 0 8274 2 27450 86.3989 167.6937 0001939 177.8301 182.2903 14.34216224348257 IRIDIUM 98 [S] 1 27451U 02031B 09006.58221181 .00000038 00000-0 53494-5 0 8415 2 27451 86.4470 230.6825 0001781 294.9025 65.1994 14.42963872347547